This is the latest recevied weather packets stored in our database for station/object WX4HP-13. If no packets are shown the sender has not sent any weather packets the latest 10 day(s).
| Time | Temp. | Humidity | Pressure | Rain* | Wind** | Luminosity | Snow |
|---|---|---|---|---|---|---|---|
| 1777999797 | 23.33° C | 47% | 1013.5 hPa | 0 mm | - | - | - |
| 1777999495 | 22.78° C | 47% | 1013.5 hPa | 0 mm | - | - | - |
| 1777999195 | 22.78° C | 46% | 1013.5 hPa | 0 mm | - | - | - |
| 1777998895 | 23.33° C | 46% | 1013.5 hPa | 0 mm | - | - | - |
| 1777998596 | 22.78° C | 47% | 1013.5 hPa | 0 mm | - | - | - |
| 1777998295 | 22.78° C | 45% | 1013.6 hPa | 0 mm | - | - | - |
| 1777997996 | 22.78° C | 44% | 1013.7 hPa | 0 mm | - | - | - |
| 1777997948 | 22.78° C | 43% | 1013.7 hPa | 0 mm | - | - | - |
| 1777997695 | 22.78° C | 43% | 1013.7 hPa | 0 mm | - | - | - |
| 1777997397 | 22.78° C | 44% | 1013.4 hPa | 0 mm | - | - | - |
| 1777997097 | 22.78° C | 45% | 1013.2 hPa | 0 mm | - | - | - |
| 1777996796 | 22.22° C | 44% | 1013.3 hPa | 0 mm | - | - | - |
| 1777996497 | 22.22° C | 48% | 1013.4 hPa | 0 mm | - | - | - |
| 1777996196 | 22.22° C | 50% | 1013.5 hPa | 0 mm | - | - | - |
| 1777995896 | 22.22° C | 52% | 1013.4 hPa | 0 mm | - | - | - |
| 1777995597 | 22.22° C | 52% | 1013.5 hPa | 0 mm | - | - | - |
| 1777995297 | 22.22° C | 53% | 1013.6 hPa | 0 mm | - | - | - |
| 1777994996 | 21.67° C | 53% | 1013.7 hPa | 0 mm | - | - | - |
| 1777994696 | 21.67° C | 54% | 1013.6 hPa | 0 mm | - | - | - |
| 1777994397 | 21.11° C | 54% | 1013.8 hPa | 0 mm | - | - | - |
| 1777994096 | 21.11° C | 54% | 1013.8 hPa | 0 mm | - | - | - |
| 1777993796 | 21.11° C | 57% | 1013.9 hPa | 0 mm | - | - | - |
| 1777993496 | 21.11° C | 57% | 1014 hPa | 0 mm | - | - | - |
| 1777993197 | 21.11° C | 57% | 1013.9 hPa | 0 mm | - | - | - |
| 1777992896 | 21.11° C | 58% | 1013.8 hPa | 0 mm | - | - | - |
* Rain latest hour (hover to see other rain measurements)
** Current wind speed in m/s (hover to see current wind gust speed)